Powrót do katalogu

STARLINK-34464

AktywnyŁącznośćVLEO
NORAD 64664·PAYLOAD·🇺🇸 United States

Wystrzelony Jun 28, 2025 z Cape Canaveral Space Force Station

Loading…

Następne Przeloty (najbliższe 24 godziny)

TLE

ŚwieżeSource: CelesTrak SupGP

Epoka: Sep 14, 2026, 22:43 UTC

1 64664C 25139A   26257.94701389  .00017846  00000+0  52750-3 0  2573
2 64664  53.1598 323.8689 0001369  97.0828  59.4305 15.34368213    14

Śledź STARLINK-34464 w czasie rzeczywistym z AllMySat

Download on the App Store